Weather History for KLGD - November, 2012

Change the Weather History Date:

Wednesday, November 21, 2012

  Actual Average Record
Temperature  
Mean Temperature 40 °F -  
Max Temperature 50 °F 43 °F 64 °F (1966)
Min Temperature 30 °F 29 °F 5 °F (1985)
Degree Days  
Heating Degree Days 25    
Moisture  
Dew Point 27 °F    
Average Humidity 56    
Maximum Humidity 80    
Minimum Humidity 32    
Precipitation  
Precipitation 0.00 in - - ()
Sea Level Pressure  
Sea Level Pressure 29.93 in    
Wind  
Wind Speed 13 mph (West)    
Max Wind Speed 25 mph    
Max Gust Speed 34 mph    
Visibility 10 miles    
Events      
Averages and records for this station are not official NWS values.
T = Trace of Precipitation, MM = Missing Value Source: NWS Daily Summary

Daily Weather History Graph

Daily Weather History Graph

Search for Another Location

Airport or City:

Trip Planner

Search our weather history database for the weather conditions in past years. The results will help you decide how hot, cold, wet, or windy it might be!

Date:

Astronomy

Nov. 21, 2012 Rise Set
Actual Time 6:59 AM PST 4:16 PM PST
Civil Twilight 6:26 AM PST 4:48 PM PST
Nautical Twilight 5:50 AM PST 5:25 PM PST
Astronomical Twilight 5:15 AM PST 6:00 PM PST
Moon 12:50 PM PST (11/21) 12:05 AM PST (11/21)
Length of Visible Light 10h 22m
Length of Day
9h 17m
Waxing Gibbous, 63% of the Moon is Illuminated
Nov 21
Waxing Gibbous
Nov 28
Full
Dec 6
Last Quarter
Dec 13
New
Dec 19
First Quarter

Hourly Weather History & Observations

Time (PST) Temp. Windchill Dew Point Humidity Pressure Visibility Wind Dir Wind Speed Gust Speed Precip Events Conditions
12:15 AM 48.2 °F - 35.6 °F 62% 29.66 in 10.0 mi SSW 16.1 mph - N/A   Clear
12:35 AM 48.2 °F - 35.6 °F 62% 29.65 in 10.0 mi SSW 18.4 mph 25.3 mph N/A   Clear
12:55 AM 48.2 °F - 35.6 °F 62% 29.65 in 10.0 mi South 18.4 mph 24.2 mph N/A   Clear
1:15 AM 48.2 °F - 35.6 °F 62% 29.65 in 10.0 mi South 16.1 mph - N/A   Clear
1:35 AM 46.4 °F 39.2 °F 35.6 °F 66% 29.64 in 10.0 mi South 18.4 mph - N/A   Clear
1:55 AM 46.4 °F 40.1 °F 35.6 °F 66% 29.63 in 10.0 mi South 15.0 mph - N/A   Partly Cloudy
2:15 AM 44.6 °F 35.7 °F 33.8 °F 66% 29.69 in 8.0 mi NW 24.2 mph 32.2 mph N/A   Mostly Cloudy
2:35 AM 42.8 °F 35.4 °F 32.0 °F 66% 29.69 in 5.0 mi West 15.0 mph - N/A   Mostly Cloudy
2:55 AM 42.8 °F 37.0 °F 33.8 °F 70% 29.65 in 7.0 mi SE 10.4 mph - N/A   Overcast
3:15 AM 42.8 °F 37.5 °F 35.6 °F 76% 29.64 in 10.0 mi SSE 9.2 mph - N/A   Scattered Clouds
3:35 AM 41.0 °F 35.2 °F 33.8 °F 76% 29.66 in 10.0 mi East 9.2 mph - N/A   Clear
4:15 AM 41.0 °F 37.1 °F 33.8 °F 76% 29.65 in 10.0 mi SE 5.8 mph - N/A   Clear
4:35 AM 39.2 °F 35.0 °F 32.0 °F 75% 29.65 in 10.0 mi NNW 5.8 mph - N/A   Clear
4:55 AM 37.4 °F 32.8 °F 30.2 °F 75% 29.65 in 10.0 mi NNW 5.8 mph - N/A   Clear
5:15 AM 37.4 °F 32.1 °F 30.2 °F 75% 29.65 in 10.0 mi North 6.9 mph - N/A   Clear
5:35 AM 37.4 °F 32.1 °F 30.2 °F 75% 29.67 in 10.0 mi NNW 6.9 mph - N/A   Clear
5:55 AM 39.2 °F 28.3 °F 30.2 °F 70% 29.75 in 10.0 mi WNW 25.3 mph 31.1 mph N/A   Mostly Cloudy
6:15 AM 41.0 °F 32.5 °F 33.8 °F 76% 29.74 in 10.0 mi West 17.3 mph 23.0 mph N/A   Overcast
6:35 AM 42.8 °F 35.4 °F 33.8 °F 70% 29.76 in 10.0 mi West 15.0 mph 34.5 mph N/A   Overcast
6:55 AM 42.8 °F 38.0 °F 32.0 °F 66% 29.77 in 10.0 mi NNW 8.1 mph 20.7 mph N/A   Mostly Cloudy
7:15 AM 42.8 °F 35.1 °F 30.2 °F 61% 29.76 in 10.0 mi WNW 16.1 mph 29.9 mph N/A   Partly Cloudy
7:35 AM 44.6 °F 36.6 °F 30.2 °F 57% 29.78 in 10.0 mi WNW 19.6 mph 32.2 mph N/A   Clear
7:55 AM 44.6 °F 37.8 °F 28.4 °F 53% 29.80 in 10.0 mi West 15.0 mph 27.6 mph N/A   Partly Cloudy
8:15 AM 44.6 °F 39.7 °F 26.6 °F 49% 29.82 in 10.0 mi NNW 9.2 mph 17.3 mph N/A   Clear
8:35 AM 44.6 °F 38.4 °F 26.6 °F 49% 29.84 in 10.0 mi NNW 12.7 mph 25.3 mph N/A   Partly Cloudy
8:55 AM 44.6 °F 39.7 °F 26.6 °F 49% 29.85 in 10.0 mi West 9.2 mph 18.4 mph N/A   Scattered Clouds
9:15 AM 44.6 °F 37.4 °F 26.6 °F 49% 29.86 in 10.0 mi WSW 16.1 mph 24.2 mph N/A   Mostly Cloudy
9:35 AM 46.4 °F 38.7 °F 24.8 °F 43% 29.87 in 10.0 mi West 20.7 mph 28.8 mph N/A   Mostly Cloudy
9:55 AM 44.6 °F 36.9 °F 24.8 °F 46% 29.88 in 10.0 mi West 18.4 mph 24.2 mph N/A   Partly Cloudy
10:15 AM 46.4 °F 39.0 °F 24.8 °F 43% 29.89 in 10.0 mi WSW 19.6 mph 29.9 mph N/A   Clear
10:35 AM 46.4 °F 44.3 °F 21.2 °F 37% 29.91 in 10.0 mi West 4.6 mph 19.6 mph N/A   Clear
10:55 AM 46.4 °F 39.8 °F 23.0 °F 40% 29.92 in 10.0 mi WNW 16.1 mph 20.7 mph N/A   Partly Cloudy
11:15 AM 48.2 °F - 24.8 °F 40% 29.92 in 10.0 mi West 13.8 mph 21.9 mph N/A   Scattered Clouds
11:35 AM 46.4 °F 41.5 °F 21.2 °F 37% 29.92 in 10.0 mi WSW 10.4 mph 20.7 mph N/A   Partly Cloudy
11:55 AM 50.0 °F - 24.8 °F 37% 29.93 in 10.0 mi West 9.2 mph 25.3 mph N/A   Mostly Cloudy
12:15 PM 48.2 °F - 23.0 °F 37% 29.94 in 10.0 mi West 11.5 mph 21.9 mph N/A   Overcast
12:35 PM 46.4 °F 39.8 °F 21.2 °F 37% 29.95 in 10.0 mi West 16.1 mph 20.7 mph N/A   Mostly Cloudy
12:55 PM 46.4 °F 41.9 °F 21.2 °F 37% 29.95 in 10.0 mi West 9.2 mph - N/A   Mostly Cloudy
1:15 PM 48.2 °F - 23.0 °F 37% 29.96 in 10.0 mi West 12.7 mph 18.4 mph N/A   Mostly Cloudy
1:35 PM 48.2 °F - 21.2 °F 34% 29.96 in 10.0 mi WSW 8.1 mph 16.1 mph N/A   Partly Cloudy
1:55 PM 50.0 °F - 21.2 °F 32% 29.96 in 10.0 mi West 5.8 mph - N/A   Clear
2:15 PM 50.0 °F - 23.0 °F 35% 29.96 in 10.0 mi West 8.1 mph - N/A   Clear
2:35 PM 48.2 °F - 21.2 °F 34% 29.97 in 10.0 mi West 8.1 mph 18.4 mph N/A   Clear
2:55 PM 48.2 °F - 21.2 °F 34% 29.98 in 10.0 mi West 9.2 mph - N/A   Clear
3:15 PM 46.4 °F 41.9 °F 21.2 °F 37% 29.99 in 10.0 mi WSW 9.2 mph - N/A   Clear
3:35 PM 46.4 °F 42.4 °F 21.2 °F 37% 30.00 in 10.0 mi West 8.1 mph 19.6 mph N/A   Mostly Cloudy
3:55 PM 44.6 °F 41.4 °F 19.4 °F 37% 30.01 in 10.0 mi SSW 5.8 mph - N/A   Mostly Cloudy
4:15 PM 44.6 °F 40.7 °F 21.2 °F 39% 30.01 in 10.0 mi SW 6.9 mph - N/A   Mostly Cloudy
4:35 PM 46.4 °F - 19.4 °F 34% 30.02 in 10.0 mi Calm Calm - N/A   Overcast
4:55 PM 44.6 °F 43.1 °F 19.4 °F 37% 30.03 in 10.0 mi WSW 3.5 mph - N/A   Overcast
5:15 PM 42.8 °F 37.5 °F 19.4 °F 39% 30.04 in 10.0 mi West 9.2 mph - N/A   Scattered Clouds
5:35 PM 44.6 °F 36.1 °F 21.2 °F 39% 30.06 in 10.0 mi West 21.9 mph 26.5 mph N/A   Mostly Cloudy
5:55 PM 42.8 °F 36.2 °F 24.8 °F 49% 30.08 in 10.0 mi West 12.7 mph 17.3 mph N/A   Overcast
6:15 PM 39.2 °F 30.5 °F 24.8 °F 56% 30.10 in 10.0 mi NNW 16.1 mph - N/A   Overcast
6:35 PM 37.4 °F 29.8 °F 26.6 °F 65% 30.13 in 10.0 mi NW 11.5 mph - N/A   Mostly Cloudy
6:55 PM 37.4 °F 34.9 °F 26.6 °F 65% 30.12 in 10.0 mi North 3.5 mph - N/A   Overcast
7:15 PM 35.6 °F 32.8 °F 26.6 °F 70% 30.13 in 10.0 mi NNE 3.5 mph - N/A   Overcast
7:35 PM 35.6 °F 31.7 °F 26.6 °F 70% 30.15 in 10.0 mi South 4.6 mph - N/A   Overcast
7:55 PM 33.8 °F 28.6 °F 26.6 °F 75% 30.16 in 10.0 mi SE 5.8 mph - N/A   Overcast
8:15 PM 33.8 °F 29.6 °F 26.6 °F 75% 30.17 in 10.0 mi South 4.6 mph - N/A   Mostly Cloudy
8:35 PM 35.6 °F 28.6 °F 26.6 °F 70% 30.18 in 10.0 mi NNE 9.2 mph - N/A   Mostly Cloudy
8:55 PM 35.6 °F 31.7 °F 28.4 °F 75% 30.19 in 10.0 mi North 4.6 mph - N/A   Mostly Cloudy
9:15 PM 32.0 °F 27.5 °F 23.0 °F 69% 30.20 in 10.0 mi NE 4.6 mph - N/A   Partly Cloudy
9:35 PM 30.2 °F 25.4 °F 24.8 °F 80% 30.20 in 10.0 mi North 4.6 mph - N/A   Clear
9:55 PM 33.8 °F 27.7 °F 24.8 °F 70% 30.21 in 10.0 mi North 6.9 mph - N/A   Clear
10:15 PM 33.8 °F 28.6 °F 24.8 °F 70% 30.22 in 10.0 mi North 5.8 mph - N/A   Clear
10:35 PM 32.0 °F 24.8 °F 24.8 °F 75% 30.23 in 10.0 mi NNE 8.1 mph - N/A   Clear
10:55 PM 33.8 °F 27.7 °F 24.8 °F 70% 30.23 in 10.0 mi North 6.9 mph - N/A   Clear
11:15 PM 37.4 °F 33.8 °F 26.6 °F 65% 30.25 in 10.0 mi North 4.6 mph - N/A   Clear
11:35 PM 35.6 °F 28.6 °F 23.0 °F 60% 30.24 in 10.0 mi NW 9.2 mph - N/A   Clear
11:55 PM 35.6 °F 31.7 °F 23.0 °F 60% 30.25 in 10.0 mi NW 4.6 mph - N/A   Clear